Weather in San Salvador

El Salvador     13˚42′09″N   89˚13′10″W
temp.,
°C
wind,
m/s
gust,
m/s
humid.,
%
clouds,
%
prec.,
mm/h
press.,
hPa
HPBL,
m
30 november, mon
mon3000:00+19˚nnw119710 0.1 101424
03:00+19˚nnw119869 0.0 101342
06:00+19˚nnw129852 0.0 101350
09:00+23˚n238373 0.0 1015397
12:00+27˚nnw126239 0.1 1013962
15:00+27˚n126398 2.4 1010939
18:00+21˚se119276 3.9 101223
21:00+19˚nnw119533 0.3 101524
1 december, tue
tue100:00+18˚nnw129851 0.3 101459
03:00+17˚nnw129762 0.0 101363
06:00+17˚nnw129755 0.0 101473
09:00+22˚nnw248046 0.0 1016430
12:00+26˚n366041 0.0 10141328
15:00+26˚nnw246219 0.1 10111240
18:00+20˚nnw268013 0.1 1013207
21:00+18˚nnw23860 0.0 101596
2 december, wed
wed200:00+17˚nnw23890 0.0 1014131
03:00+16˚nnw24906 0.0 1013164
06:00+16˚nnw23928 0.0 1014134
09:00+21˚nnw24750 0.0 1015380
12:00+25˚nnw23620 0.0 1014621
15:00+26˚n12620 0.0 1011792
18:00+21˚nnw11871 0.0 101324
21:00+19˚nw12871 0.0 101539
3 december, thu
thu300:00+18˚nnw12910 0.0 101463
03:00+17˚nnw12940 0.0 101264
06:00+17˚nnw12960 0.0 101365
09:00+23˚nnw23750 0.0 1014433
12:00+26˚nnw23610 0.0 1012792
15:00+27˚nw12600 0.2 1010945
18:00+21˚w01870 0.5 101227
21:00+19˚nw119626 2.4 101438
4 december, fri
fri400:00+19˚nnw129661 3.3 101356
03:00+18˚nnw129688 0.0 101258
06:00+18˚nnw129659 0.0 101352
09:00+22˚nnw24781 0.0 1014404
12:00+27˚nnw236323 0.0 1012809
15:00+26˚nnw127679 1.9 1009478
18:00+21˚n119247 3.1 101225
21:00+20˚nnw129386 0.1 101438